Regional Weather Roundup
Issued by NWS

Home | Current Version | Previous Version | Graphics & Text | Print | Product List | Glossary On
Versions: 1 2 3 4 5 6 7 8 9 10 11 12 13 14 15 16 17 18 19 20 21 22 23 24 25 26 27 28 29 30 31 32 33 34 35 36 37 38 39 40 41 42 43 44 45 46 47 48 49 50
000
ASUS43 KMPX 022210
RWRMN
WEATHER ROUNDUP FOR MINNESOTA
NATIONAL WEATHER SERVICE TWIN CITIES/CHANHASSEN MN
500 PM CDT WED SEP 02 2015


NOTE: "FAIR" INDICATES FEW OR NO CLOUDS BELOW 12,000 FEET WITH NO
SIGNIFICANT WEATHER AND/OR OBSTRUCTIONS TO VISIBILITY. N/A MEANS
CURRENT SKY AND/OR WEATHER CONDITIONS ARE NOT AVAILABLE.

MNZ060>063-068>070-022300-
   Twin Cities Metro

CITY           SKY/WX    TMP DP  RH WIND       PRES   REMARKS
TWIN CITIES    SUNNY     77  68  73 E10       29.87F
ST PAUL        SUNNY     76  69  79 E9        29.88F
CRYSTAL        SUNNY     78  68  71 E7        29.87F
BLAINE         MOSUNNY   77  72  83 E13       29.89F
LAKEVILLE      SUNNY     79  73  83 E7        29.87S
EDEN PRAIRIE   SUNNY     79  70  74 E9        29.86F
SOUTH ST PAUL  SUNNY     77  68  73 E7        29.88F
LAKE ELMO      FAIR      73  70  88 E7        29.90F
$$
MNZ001>005-007-008-013>017-022>024-027-028-022300-
   Northwest Minnesota

CITY           SKY/WX    TMP DP  RH WIND       PRES   REMARKS
BEMIDJI        SUNNY     83  65  53 SE13      29.87S
HALLOCK        SUNNY     91  61  35 S20       29.77S HX  91
ROSEAU         SUNNY     88  70  55 S14       29.83S HX  92
WARROAD        SUNNY     86  72  62 SE10G17   29.84S HX  92
THIEF RVR FALL SUNNY     88  63  42 SE14      29.82S
CROOKSTON      SUNNY     90  63  40 S13G20    29.80S HX  90
FOSSTON        SUNNY     90  61  37 SE9       29.84F
DETROIT LAKES  SUNNY     82  64  54 SE13      29.86S
MOORHEAD       SUNNY     88  64  45 SE16      29.79F
PARK RAPIDS    SUNNY     83  65  54 SE13      29.88S
MAHNOMEN       FAIR      84  65  52 SE13G18   29.83F
$$
MNZ006-009>011-018-025>026-022300-
   North Central Minnesota

CITY           SKY/WX    TMP DP  RH WIND       PRES   REMARKS
BAUDETTE       SUNNY     85  65  51 S13       29.86F
FLAG ISLAND    MOSUNNY   79  70  73 SE13      29.83F
INTL FALLS     MOSUNNY   83  65  54 VRB5      29.89F
WASKISH        SUNNY     82  63  51 SE8       29.87F
BIG FORK       SUNNY     82  61  47 SE6       29.91S
LONGVILLE      SUNNY     81  66  61 SE8       29.90S
GRAND RAPIDS     N/A     81  63  54 SE12      29.92S
CRANE LAKE     SUNNY     79  63  57 SE3       29.94S
ORR            SUNNY     79  63  57 E1        29.90S
COOK           SUNNY     79  63  57 SE8       29.94S
WALKER         FAIR      80  66  62 SE6       29.88S
$$
MNZ012-019>021-037-022300-
   Northeast Minnesota

CITY           SKY/WX    TMP DP  RH WIND       PRES   REMARKS
DULUTH         PTSUNNY   71  64  78 E8        29.95S
ELY            SUNNY     75  63  64 S6        29.95F
HIBBING        SUNNY     77  65  66 E8        29.93F
EVELETH        MOSUNNY   73  63  68 SE7       29.96S
DULUTH HARBOR  SUNNY     64  61  88 E3        29.95S
TWO HARBORS    SUNNY     75  68  78 E6        29.93F
SILVER BAY     SUNNY     73  64  73 CALM      29.94F
GRAND MARAIS     N/A     64  52  64 NE6       29.96F
G MARAIS ARPRT PTSUNNY   68  57  68 SE6       30.01F
$$
MNZ029>031-032-039>041-046>048-054>057-064-022300-
   West Central Minnesota

CITY           SKY/WX    TMP DP  RH WIND       PRES   REMARKS
FERGUS FALLS   MOSUNNY   82  66  57 SE13G20   29.81S
WHEATON        MOSUNNY   82  70  65 E17       29.81F
MORRIS         MOSUNNY   84  72  65 E13       29.82S
ALEXANDRIA     SUNNY     80  68  66 SE16G22   29.88F
ELBOW LAKE     FAIR      81  69  67 SE13G20   29.84S
WADENA         SUNNY     82  66  57 SE15      29.87S
GLENWOOD       SUNNY     81  70  69 E14       29.87F
APPLETON       MOSUNNY   86  72  62 E15       29.81S HX  92
BENSON         MOSUNNY   82  70  65 SE8G17    29.83S
ORTONVILLE     MOSUNNY   88  72  58 SE13      29.81R HX  94
MADISON        MOSUNNY   84  72  65 SE10      29.81S
WILLMAR        FAIR      82  73  74 E12       29.86S
$$
MNZ033>034-036-042>043-049>051-058-059-022300-
   Central Minnesota

CITY           SKY/WX    TMP DP  RH WIND       PRES   REMARKS
ST CLOUD       MOSUNNY   76  68  76 SE6       29.88F
SAUK CENTRE    FAIR      79  68  68 SE10      29.88F
PAYNESVILLE    MOSUNNY   78  69  74 NE10      29.88F
AITKIN         PTSUNNY   79  68  69 S9        29.91R
PINE RIVER     SUNNY     79  66  65 SE12      29.94S
BRAINERD       PTSUNNY   78  66  66 SE8       29.91S
STAPLES        MOSUNNY   81  64  57 SE10G16   29.88S
LONG PRAIRIE   FAIR      79  68  69 E8G17     29.88F
LITTLE FALLS   MOSUNNY   77  64  65 E9        29.90S
LITCHFIELD     SUNNY     81  73  78 E8        29.87F
BUFFALO        SUNNY     77  68  72 E7        29.89S
MAPLE LAKE     SUNNY     79  71  78 E7        29.89F
$$
MNZ037-044-045-052-053-022300-
   East Central Minnesota

CITY           SKY/WX    TMP DP  RH WIND       PRES   REMARKS
PRINCETON      MOSUNNY   79  70  73 CALM      29.90S
MORA           PTSUNNY   73  64  73 CALM      29.93R
CAMBRIDGE      CLOUDY    75  64  69 E6        29.89S
RUSH CITY      CLOUDY    74  67  78 SE5       29.91S
MOOSE LAKE     MOSUNNY   77  64  65 SE6       29.91S
HINCKLEY       CLOUDY    75  68  78 E5        29.92F
CLOQUET        SUNNY     72  63  73 E8        29.95R
MCGREGOR       MOSUNNY   77  64  65 SE9       29.93R
$$
MNZ071>073-080-081-089-090-097-098-022300-
   Southwest Minnesota

CITY           SKY/WX    TMP DP  RH WIND       PRES   REMARKS
MONTEVIDEO     MOSUNNY   88  75  66 SE13G18   29.83F HX  97
GRANITE FALLS  SUNNY     87  73  63 E7        29.83S HX  94
CANBY          MOSUNNY   88  74  62 E9        29.82S HX  96
MARSHALL       MOSUNNY   88  72  58 S9        29.84R HX  94
REDWOOD FALLS  MOSUNNY   86  73  65 E8        29.82F HX  93
OLIVIA         SUNNY     81  70  69 E10G17    29.84F
PIPESTONE      PTSUNNY   84  73  70 S10G16    29.84S HX  91
WINDOM         SUNNY     86  72  62 CALM      29.85S HX  92
WORTHINGTON    MOSUNNY   84  72  65 S14       29.84F
JACKSON        SUNNY     86  72  62 S13       29.86S HX  92
TRACY          MOSUNNY   86  74  67 S7        29.84S HX  95
SLAYTON        MOSUNNY   84  74  71 S8        29.85S HX  90
$$
MNZ065>067-074>077-082>085-091>093-022300-
   South Central Minnesota

CITY           SKY/WX    TMP DP  RH WIND       PRES   REMARKS
MANKATO        PTSUNNY   84  73  70 SE8       29.86F HX  91
NEW ULM        MOSUNNY   84  72  65 SE6       29.84F
ST JAMES       MOSUNNY   88  75  66 SE5       29.85S HX  97
FAIRMONT       SUNNY     84  70  61 S12       29.85S
GLENCOE        MOSUNNY   83  75  76 E8        29.85F HX  91
FARIBAULT      MOSUNNY   84  72  65 S3        29.87F
OWATONNA       SUNNY     84  72  65 S7        29.88F
WASECA         MOSUNNY   82  70  65 S5        29.88F
ALBERT LEA     MOSUNNY   84  70  61 S3        29.89S
$$
MNZ078>079-086>088-094>096-022300-
   Southeast Minnesota

CITY           SKY/WX    TMP DP  RH WIND       PRES   REMARKS
ROCHESTER      MOSUNNY   82  72  71 S10       29.91F
RED WING       MOSUNNY   79  70  73 E9        29.87F
STANTON        PTSUNNY   85  71  62 CALM      29.85F
DODGE CENTER   MOSUNNY   82  70  65 SW7       29.90F
WINONA         CLOUDY    81  70  69 CALM      29.89F
AUSTIN         PTSUNNY   84  72  65 SW6       29.89F
PRESTON        CLOUDY    81  70  70 S8        29.92S
$$
ABBREVIATIONS USED IN REMARKS
   TC - TEMPERATURES IN CELSIUS
  WCI - WIND CHILL INDEX
   HX - HEAT INDEX
  VSB - VISIBILITY
$$



USA.gov is the U.S. government's official web portal to all federal, state and local government web resources and services.